Location: Poprad
(49.0500°N, 20.3000°E)
Time: 08:45:36
(UTC+02:00)

Oscar 11 - Pass Details

Date: 20 April 2024
Orbit: 602 x 614 km, 97.7° (Epoch: 19 May)

Event Time Altitude Azimuth Distance (km) Brightness Sun altitude
Rises 04:07:25 0° 19° (NNE) 2,897 11.5 -13.8°
Reaches altitude 10° 04:09:44 10° 27° (NNE) 1,985 10.7 -13.5°
Maximum altitude 04:13:49 41° 98° (E) 901 8.3 -13.0°
Drops below altitude 10° 04:17:51 10° 169° (SSE) 1,963 9.4 -12.4°
Sets 04:20:07 0° 176° (S) 2,860 10.2 -12.1°
